#datetime,building,power
2023-12-17T00:00:00,thc,6.02
2023-12-17T00:01:00,thc,5.79
2023-12-17T00:02:00,thc,13.10
2023-12-17T00:03:00,thc,13.04
2023-12-17T00:04:00,thc,4.85
2023-12-17T00:05:00,thc,4.87
2023-12-17T00:06:00,thc,3.45
2023-12-17T00:07:00,thc,7.52
2023-12-17T00:08:00,thc,7.51
2023-12-17T00:09:00,thc,3.38
2023-12-17T00:10:00,thc,3.33
2023-12-17T00:11:00,thc,7.15
2023-12-17T00:12:00,thc,7.03
2023-12-17T00:13:00,thc,2.91
2023-12-17T00:14:00,thc,3.96
2023-12-17T00:15:00,thc,3.95
2023-12-17T00:16:00,thc,8.12
2023-12-17T00:17:00,thc,8.30
2023-12-17T00:18:00,thc,4.18
2023-12-17T00:19:00,thc,4.19
2023-12-17T00:20:00,thc,3.15
2023-12-17T00:21:00,thc,7.28
2023-12-17T00:22:00,thc,3.17
2023-12-17T00:23:00,thc,3.19
2023-12-17T00:24:00,thc,3.19
2023-12-17T00:25:00,thc,3.08
2023-12-17T00:26:00,thc,3.05
2023-12-17T00:27:00,thc,2.71
2023-12-17T00:28:00,thc,2.72
2023-12-17T00:29:00,thc,2.93
2023-12-17T00:30:00,thc,2.71
2023-12-17T00:31:00,thc,2.75
2023-12-17T00:32:00,thc,3.71
2023-12-17T00:33:00,thc,3.84
2023-12-17T00:34:00,thc,3.79
2023-12-17T00:35:00,thc,3.55
2023-12-17T00:36:00,thc,3.54
2023-12-17T00:37:00,thc,3.56
2023-12-17T00:38:00,thc,4.76
2023-12-17T00:39:00,thc,3.86
2023-12-17T00:40:00,thc,3.88
2023-12-17T00:41:00,thc,4.88
2023-12-17T00:42:00,thc,4.78
2023-12-17T00:43:00,thc,4.78
2023-12-17T00:44:00,thc,3.61
2023-12-17T00:45:00,thc,3.60
2023-12-17T00:46:00,thc,3.60
2023-12-17T00:47:00,thc,4.61
2023-12-17T00:48:00,thc,2.57
2023-12-17T00:49:00,thc,3.02
2023-12-17T00:50:00,thc,4.69
2023-12-17T00:51:00,thc,4.69
2023-12-17T00:52:00,thc,2.63
2023-12-17T00:53:00,thc,3.61
2023-12-17T00:54:00,thc,4.60
2023-12-17T00:55:00,thc,2.60
2023-12-17T00:56:00,thc,4.49
2023-12-17T00:57:00,thc,2.65
2023-12-17T00:58:00,thc,4.61
2023-12-17T00:59:00,thc,4.62
2023-12-17T01:00:00,thc,4.70
2023-12-17T01:01:00,thc,4.66
2023-12-17T01:02:00,thc,4.62
2023-12-17T01:03:00,thc,4.70
2023-12-17T01:04:00,thc,4.77
2023-12-17T01:05:00,thc,4.69
2023-12-17T01:06:00,thc,4.58
2023-12-17T01:07:00,thc,4.68
2023-12-17T01:08:00,thc,5.21
2023-12-17T01:09:00,thc,3.73
2023-12-17T01:10:00,thc,5.73
2023-12-17T01:11:00,thc,3.63
2023-12-17T01:12:00,thc,5.71
2023-12-17T01:13:00,thc,7.82
2023-12-17T01:14:00,thc,7.29
2023-12-17T01:15:00,thc,6.86
2023-12-17T01:16:00,thc,6.25
2023-12-17T01:17:00,thc,6.41
2023-12-17T01:18:00,thc,7.38
2023-12-17T01:19:00,thc,4.24
2023-12-17T01:20:00,thc,4.28
2023-12-17T01:21:00,thc,8.51
2023-12-17T01:22:00,thc,6.99
2023-12-17T01:23:00,thc,5.75
2023-12-17T01:24:00,thc,6.43
2023-12-17T01:25:00,thc,7.94
2023-12-17T01:26:00,thc,8.71
2023-12-17T01:27:00,thc,6.83
2023-12-17T01:28:00,thc,7.40
2023-12-17T01:29:00,thc,3.87
2023-12-17T01:30:00,thc,4.83
2023-12-17T01:31:00,thc,4.17
2023-12-17T01:32:00,thc,4.75
2023-12-17T01:33:00,thc,4.79
2023-12-17T01:34:00,thc,4.65
2023-12-17T01:35:00,thc,4.59
2023-12-17T01:36:00,thc,3.40
2023-12-17T01:37:00,thc,3.37
2023-12-17T01:38:00,thc,3.71
2023-12-17T01:39:00,thc,3.54
2023-12-17T01:40:00,thc,3.57
2023-12-17T01:41:00,thc,3.69
2023-12-17T01:42:00,thc,3.74
2023-12-17T01:43:00,thc,3.60
2023-12-17T01:44:00,thc,4.19
2023-12-17T01:45:00,thc,4.30
2023-12-17T01:46:00,thc,4.20
2023-12-17T01:47:00,thc,4.31
2023-12-17T01:48:00,thc,4.27
2023-12-17T01:49:00,thc,4.29
2023-12-17T01:50:00,thc,4.42
2023-12-17T01:51:00,thc,4.04
2023-12-17T01:52:00,thc,3.98
2023-12-17T01:53:00,thc,4.02
2023-12-17T01:54:00,thc,4.03
2023-12-17T01:55:00,thc,3.97
2023-12-17T01:56:00,thc,5.07
2023-12-17T01:57:00,thc,4.96
2023-12-17T01:58:00,thc,4.94
2023-12-17T01:59:00,thc,6.08
2023-12-17T02:00:00,thc,7.54
2023-12-17T02:01:00,thc,7.03
2023-12-17T02:02:00,thc,5.79
2023-12-17T02:03:00,thc,6.72
2023-12-17T02:04:00,thc,6.73
2023-12-17T02:05:00,thc,6.70
2023-12-17T02:06:00,thc,5.75
2023-12-17T02:07:00,thc,5.22
2023-12-17T02:08:00,thc,5.03
2023-12-17T02:09:00,thc,6.38
2023-12-17T02:10:00,thc,6.12
2023-12-17T02:11:00,thc,5.23
2023-12-17T02:12:00,thc,4.95
2023-12-17T02:13:00,thc,4.94
2023-12-17T02:14:00,thc,5.00
2023-12-17T02:15:00,thc,4.98
2023-12-17T02:16:00,thc,4.78
2023-12-17T02:17:00,thc,3.86
2023-12-17T02:18:00,thc,3.96
2023-12-17T02:19:00,thc,3.93
2023-12-17T02:20:00,thc,3.89
2023-12-17T02:21:00,thc,3.90
2023-12-17T02:22:00,thc,3.91
2023-12-17T02:23:00,thc,3.86
2023-12-17T02:24:00,thc,3.86
2023-12-17T02:25:00,thc,3.91
2023-12-17T02:26:00,thc,3.94
2023-12-17T02:27:00,thc,3.95
2023-12-17T02:28:00,thc,3.94
2023-12-17T02:29:00,thc,3.96
2023-12-17T02:30:00,thc,3.95
2023-12-17T02:31:00,thc,3.19
2023-12-17T02:32:00,thc,2.99
2023-12-17T02:33:00,thc,3.92
2023-12-17T02:34:00,thc,3.89
2023-12-17T02:35:00,thc,3.89
2023-12-17T02:36:00,thc,3.97
2023-12-17T02:37:00,thc,3.97
2023-12-17T02:38:00,thc,5.67
2023-12-17T02:39:00,thc,5.79
2023-12-17T02:40:00,thc,5.04
2023-12-17T02:41:00,thc,5.01
2023-12-17T02:42:00,thc,5.27
2023-12-17T02:43:00,thc,5.29
2023-12-17T02:44:00,thc,5.12
2023-12-17T02:45:00,thc,5.13
2023-12-17T02:46:00,thc,5.14
2023-12-17T02:47:00,thc,5.01
2023-12-17T02:48:00,thc,5.19
2023-12-17T02:49:00,thc,9.33
2023-12-17T02:50:00,thc,8.33
2023-12-17T02:51:00,thc,8.31
2023-12-17T02:52:00,thc,8.29
2023-12-17T02:53:00,thc,8.26
2023-12-17T02:54:00,thc,8.48
2023-12-17T02:55:00,thc,8.46
2023-12-17T02:56:00,thc,8.45
2023-12-17T02:57:00,thc,9.92
2023-12-17T02:58:00,thc,9.40
2023-12-17T02:59:00,thc,9.40
2023-12-17T03:00:00,thc,9.36
2023-12-17T03:01:00,thc,9.16
2023-12-17T03:02:00,thc,8.50
2023-12-17T03:03:00,thc,8.24
2023-12-17T03:04:00,thc,8.23
2023-12-17T03:05:00,thc,9.22
2023-12-17T03:06:00,thc,9.22
2023-12-17T03:07:00,thc,9.11
2023-12-17T03:08:00,thc,8.87
2023-12-17T03:09:00,thc,9.02
2023-12-17T03:10:00,thc,4.90
2023-12-17T03:11:00,thc,9.27
2023-12-17T03:12:00,thc,8.21
2023-12-17T03:13:00,thc,5.29
2023-12-17T03:14:00,thc,5.34
2023-12-17T03:15:00,thc,8.56
2023-12-17T03:16:00,thc,8.53
2023-12-17T03:17:00,thc,4.38
2023-12-17T03:18:00,thc,4.14
2023-12-17T03:19:00,thc,7.28
2023-12-17T03:20:00,thc,7.28
2023-12-17T03:21:00,thc,3.17
2023-12-17T03:22:00,thc,3.16
2023-12-17T03:23:00,thc,8.30
2023-12-17T03:24:00,thc,4.20
2023-12-17T03:25:00,thc,4.19
2023-12-17T03:26:00,thc,8.31
2023-12-17T03:27:00,thc,8.27
2023-12-17T03:28:00,thc,4.15
2023-12-17T03:29:00,thc,3.18
2023-12-17T03:30:00,thc,7.43
2023-12-17T03:31:00,thc,3.32
2023-12-17T03:32:00,thc,3.34
2023-12-17T03:33:00,thc,8.20
2023-12-17T03:34:00,thc,8.22
2023-12-17T03:35:00,thc,4.06
2023-12-17T03:36:00,thc,4.12
2023-12-17T03:37:00,thc,8.20
2023-12-17T03:38:00,thc,5.22
2023-12-17T03:39:00,thc,6.11
2023-12-17T03:40:00,thc,10.09
2023-12-17T03:41:00,thc,9.44
2023-12-17T03:42:00,thc,5.44
2023-12-17T03:43:00,thc,5.40
2023-12-17T03:44:00,thc,9.26
2023-12-17T03:45:00,thc,8.50
2023-12-17T03:46:00,thc,3.44
2023-12-17T03:47:00,thc,4.57
2023-12-17T03:48:00,thc,4.71
2023-12-17T03:49:00,thc,4.36
2023-12-17T03:50:00,thc,4.41
2023-12-17T03:51:00,thc,4.30
2023-12-17T03:52:00,thc,3.98
2023-12-17T03:53:00,thc,3.01
2023-12-17T03:54:00,thc,4.45
2023-12-17T03:55:00,thc,4.95
2023-12-17T03:56:00,thc,4.94
2023-12-17T03:57:00,thc,4.93
2023-12-17T03:58:00,thc,4.98
2023-12-17T03:59:00,thc,4.96
2023-12-17T04:00:00,thc,4.83
2023-12-17T04:01:00,thc,4.84
2023-12-17T04:02:00,thc,4.91
2023-12-17T04:03:00,thc,4.06
2023-12-17T04:04:00,thc,3.93
2023-12-17T04:05:00,thc,3.94
2023-12-17T04:06:00,thc,3.07
2023-12-17T04:07:00,thc,3.02
2023-12-17T04:08:00,thc,2.27
2023-12-17T04:09:00,thc,2.19
2023-12-17T04:10:00,thc,2.18
2023-12-17T04:11:00,thc,2.14
2023-12-17T04:12:00,thc,2.43
2023-12-17T04:13:00,thc,2.20
2023-12-17T04:14:00,thc,2.19
2023-12-17T04:15:00,thc,2.20
2023-12-17T04:16:00,thc,2.24
2023-12-17T04:17:00,thc,3.62
2023-12-17T04:18:00,thc,3.26
2023-12-17T04:19:00,thc,3.25
2023-12-17T04:20:00,thc,3.21
2023-12-17T04:21:00,thc,3.15
2023-12-17T04:22:00,thc,4.97
2023-12-17T04:23:00,thc,6.13
2023-12-17T04:24:00,thc,5.19
2023-12-17T04:25:00,thc,5.30
2023-12-17T04:26:00,thc,5.28
2023-12-17T04:27:00,thc,5.31
2023-12-17T04:28:00,thc,4.05
2023-12-17T04:29:00,thc,3.08
2023-12-17T04:30:00,thc,2.42
2023-12-17T04:31:00,thc,2.22
2023-12-17T04:32:00,thc,2.16
2023-12-17T04:33:00,thc,2.21
2023-12-17T04:34:00,thc,2.16
2023-12-17T04:35:00,thc,2.16
2023-12-17T04:36:00,thc,2.20
2023-12-17T04:37:00,thc,3.19
2023-12-17T04:38:00,thc,3.16
2023-12-17T04:39:00,thc,3.16
2023-12-17T04:40:00,thc,3.16
2023-12-17T04:41:00,thc,3.09
2023-12-17T04:42:00,thc,3.09
2023-12-17T04:43:00,thc,4.33
2023-12-17T04:44:00,thc,3.84
2023-12-17T04:45:00,thc,3.39
2023-12-17T04:46:00,thc,3.30
2023-12-17T04:47:00,thc,3.23
2023-12-17T04:48:00,thc,3.92
2023-12-17T04:49:00,thc,2.98
2023-12-17T04:50:00,thc,2.87
2023-12-17T04:51:00,thc,3.82
2023-12-17T04:52:00,thc,3.83
2023-12-17T04:53:00,thc,4.08
2023-12-17T04:54:00,thc,4.07
2023-12-17T04:55:00,thc,3.27
2023-12-17T04:56:00,thc,3.19
2023-12-17T04:57:00,thc,3.18
2023-12-17T04:58:00,thc,2.22
2023-12-17T04:59:00,thc,3.38
2023-12-17T05:00:00,thc,3.39
2023-12-17T05:01:00,thc,3.61
2023-12-17T05:02:00,thc,3.43
2023-12-17T05:03:00,thc,3.47
2023-12-17T05:04:00,thc,3.36
2023-12-17T05:05:00,thc,2.30
2023-12-17T05:06:00,thc,2.29
2023-12-17T05:07:00,thc,2.16
2023-12-17T05:08:00,thc,3.26
2023-12-17T05:09:00,thc,3.23
2023-12-17T05:10:00,thc,3.20
2023-12-17T05:11:00,thc,3.32
2023-12-17T05:12:00,thc,4.17
2023-12-17T05:13:00,thc,4.18
2023-12-17T05:14:00,thc,4.11
2023-12-17T05:15:00,thc,3.90
2023-12-17T05:16:00,thc,4.19
2023-12-17T05:17:00,thc,4.24
2023-12-17T05:18:00,thc,4.22
2023-12-17T05:19:00,thc,4.05
2023-12-17T05:20:00,thc,3.61
2023-12-17T05:21:00,thc,3.52
2023-12-17T05:22:00,thc,3.40
2023-12-17T05:23:00,thc,2.35
2023-12-17T05:24:00,thc,2.33
2023-12-17T05:25:00,thc,2.48
2023-12-17T05:26:00,thc,2.32
2023-12-17T05:27:00,thc,2.31
2023-12-17T05:28:00,thc,2.31
2023-12-17T05:29:00,thc,2.35
2023-12-17T05:30:00,thc,2.39
2023-12-17T05:31:00,thc,2.39
2023-12-17T05:32:00,thc,2.34
2023-12-17T05:33:00,thc,4.45
2023-12-17T05:34:00,thc,4.36
2023-12-17T05:35:00,thc,4.41
2023-12-17T05:36:00,thc,4.42
2023-12-17T05:37:00,thc,4.34
2023-12-17T05:38:00,thc,4.44
2023-12-17T05:39:00,thc,3.49
2023-12-17T05:40:00,thc,2.42
2023-12-17T05:41:00,thc,3.12
2023-12-17T05:42:00,thc,3.13
2023-12-17T05:43:00,thc,3.02
2023-12-17T05:44:00,thc,3.17
2023-12-17T05:45:00,thc,3.04
2023-12-17T05:46:00,thc,3.04
2023-12-17T05:47:00,thc,3.04
2023-12-17T05:48:00,thc,3.06
2023-12-17T05:49:00,thc,2.32
2023-12-17T05:50:00,thc,2.29
2023-12-17T05:51:00,thc,3.28
2023-12-17T05:52:00,thc,3.26
2023-12-17T05:53:00,thc,4.39
2023-12-17T05:54:00,thc,4.57
2023-12-17T05:55:00,thc,4.35
2023-12-17T05:56:00,thc,5.46
2023-12-17T05:57:00,thc,5.49
2023-12-17T05:58:00,thc,4.53
2023-12-17T05:59:00,thc,3.42
2023-12-17T06:00:00,thc,3.21
2023-12-17T06:01:00,thc,3.18
2023-12-17T06:02:00,thc,2.15
2023-12-17T06:03:00,thc,2.27
2023-12-17T06:04:00,thc,2.10
2023-12-17T06:05:00,thc,2.09
2023-12-17T06:06:00,thc,2.13
2023-12-17T06:07:00,thc,2.10
2023-12-17T06:08:00,thc,3.25
2023-12-17T06:09:00,thc,3.27
2023-12-17T06:10:00,thc,3.22
2023-12-17T06:11:00,thc,3.99
2023-12-17T06:12:00,thc,4.09
2023-12-17T06:13:00,thc,3.87
2023-12-17T06:14:00,thc,3.89
2023-12-17T06:15:00,thc,4.11
2023-12-17T06:16:00,thc,4.07
2023-12-17T06:17:00,thc,3.98
2023-12-17T06:18:00,thc,4.16
2023-12-17T06:19:00,thc,3.21
2023-12-17T06:20:00,thc,3.00
2023-12-17T06:21:00,thc,3.35
2023-12-17T06:22:00,thc,3.45
2023-12-17T06:23:00,thc,3.26
2023-12-17T06:24:00,thc,3.29
2023-12-17T06:25:00,thc,3.37
2023-12-17T06:26:00,thc,3.37
2023-12-17T06:27:00,thc,3.30
2023-12-17T06:28:00,thc,3.64
2023-12-17T06:29:00,thc,3.42
2023-12-17T06:30:00,thc,3.42
2023-12-17T06:31:00,thc,3.42
2023-12-17T06:32:00,thc,2.36
2023-12-17T06:33:00,thc,3.93
2023-12-17T06:34:00,thc,3.42
2023-12-17T06:35:00,thc,3.39
2023-12-17T06:36:00,thc,3.26
2023-12-17T06:37:00,thc,4.30
2023-12-17T06:38:00,thc,4.20
2023-12-17T06:39:00,thc,5.18
2023-12-17T06:40:00,thc,4.15
2023-12-17T06:41:00,thc,4.30
2023-12-17T06:42:00,thc,4.21
2023-12-17T06:43:00,thc,4.09
2023-12-17T06:44:00,thc,4.08
2023-12-17T06:45:00,thc,4.17
2023-12-17T06:46:00,thc,4.61
2023-12-17T06:47:00,thc,4.60
2023-12-17T06:48:00,thc,4.58
2023-12-17T06:49:00,thc,4.56
2023-12-17T06:50:00,thc,3.46
2023-12-17T06:51:00,thc,3.62
2023-12-17T06:52:00,thc,2.46
2023-12-17T06:53:00,thc,2.43
2023-12-17T06:54:00,thc,2.30
2023-12-17T06:55:00,thc,2.41
2023-12-17T06:56:00,thc,2.33
2023-12-17T06:57:00,thc,2.32
2023-12-17T06:58:00,thc,2.33
2023-12-17T06:59:00,thc,2.30
2023-12-17T07:00:00,thc,2.49
2023-12-17T07:01:00,thc,2.37
2023-12-17T07:02:00,thc,2.26
2023-12-17T07:03:00,thc,2.22
2023-12-17T07:04:00,thc,2.15
2023-12-17T07:05:00,thc,2.15
2023-12-17T07:06:00,thc,3.03
2023-12-17T07:07:00,thc,3.03
2023-12-17T07:08:00,thc,3.03
2023-12-17T07:09:00,thc,3.27
2023-12-17T07:10:00,thc,3.19
2023-12-17T07:11:00,thc,2.71
2023-12-17T07:12:00,thc,2.52
2023-12-17T07:13:00,thc,2.75
2023-12-17T07:14:00,thc,2.86
2023-12-17T07:15:00,thc,2.71
2023-12-17T07:16:00,thc,3.07
2023-12-17T07:17:00,thc,3.55
2023-12-17T07:18:00,thc,3.63
2023-12-17T07:19:00,thc,3.55
2023-12-17T07:20:00,thc,2.66
2023-12-17T07:21:00,thc,2.72
2023-12-17T07:22:00,thc,2.66
2023-12-17T07:23:00,thc,3.98
2023-12-17T07:24:00,thc,4.08
2023-12-17T07:25:00,thc,4.06
2023-12-17T07:26:00,thc,4.03
2023-12-17T07:27:00,thc,5.13
2023-12-17T07:28:00,thc,5.38
2023-12-17T07:29:00,thc,5.07
2023-12-17T07:30:00,thc,4.11
2023-12-17T07:31:00,thc,3.79
2023-12-17T07:32:00,thc,3.07
2023-12-17T07:33:00,thc,2.08
2023-12-17T07:34:00,thc,2.06
2023-12-17T07:35:00,thc,1.94
2023-12-17T07:36:00,thc,1.93
2023-12-17T07:37:00,thc,2.02
2023-12-17T07:38:00,thc,2.15
2023-12-17T07:39:00,thc,2.11
2023-12-17T07:40:00,thc,1.98
2023-12-17T07:41:00,thc,1.83
2023-12-17T07:42:00,thc,1.83
2023-12-17T07:43:00,thc,1.77
2023-12-17T07:44:00,thc,1.76
2023-12-17T07:45:00,thc,1.71
2023-12-17T07:46:00,thc,1.75
2023-12-17T07:47:00,thc,1.90
2023-12-17T07:48:00,thc,1.95
2023-12-17T07:49:00,thc,2.10
2023-12-17T07:50:00,thc,2.82
2023-12-17T07:51:00,thc,2.85
2023-12-17T07:52:00,thc,3.69
2023-12-17T07:53:00,thc,3.72
2023-12-17T07:54:00,thc,3.71
2023-12-17T07:55:00,thc,3.75
2023-12-17T07:56:00,thc,3.72
2023-12-17T07:57:00,thc,2.83
2023-12-17T07:58:00,thc,3.74
2023-12-17T07:59:00,thc,3.76
2023-12-17T08:00:00,thc,3.00
2023-12-17T08:01:00,thc,2.98
2023-12-17T08:02:00,thc,4.64
2023-12-17T08:03:00,thc,4.58
2023-12-17T08:04:00,thc,1.75
2023-12-17T08:05:00,thc,1.94
2023-12-17T08:06:00,thc,1.97
2023-12-17T08:07:00,thc,1.90
2023-12-17T08:08:00,thc,1.81
2023-12-17T08:09:00,thc,1.82
2023-12-17T08:10:00,thc,1.82
2023-12-17T08:11:00,thc,1.82
2023-12-17T08:12:00,thc,1.81
2023-12-17T08:13:00,thc,1.84
2023-12-17T08:14:00,thc,2.98
2023-12-17T08:15:00,thc,3.88
2023-12-17T08:16:00,thc,3.88
2023-12-17T08:17:00,thc,2.97
2023-12-17T08:18:00,thc,4.85
2023-12-17T08:19:00,thc,4.08
2023-12-17T08:20:00,thc,4.08
2023-12-17T08:21:00,thc,2.80
2023-12-17T08:22:00,thc,2.96
2023-12-17T08:23:00,thc,3.84
2023-12-17T08:24:00,thc,2.91
2023-12-17T08:25:00,thc,3.61
2023-12-17T08:26:00,thc,1.82
2023-12-17T08:27:00,thc,2.75
2023-12-17T08:28:00,thc,2.71
2023-12-17T08:29:00,thc,3.70
2023-12-17T08:30:00,thc,2.79
2023-12-17T08:31:00,thc,2.82
2023-12-17T08:32:00,thc,5.96
2023-12-17T08:33:00,thc,7.17
2023-12-17T08:34:00,thc,6.65
2023-12-17T08:35:00,thc,6.33
2023-12-17T08:36:00,thc,5.56
2023-12-17T08:37:00,thc,5.35
2023-12-17T08:38:00,thc,4.39
2023-12-17T08:39:00,thc,3.36
2023-12-17T08:40:00,thc,2.64
2023-12-17T08:41:00,thc,1.74
2023-12-17T08:42:00,thc,1.78
2023-12-17T08:43:00,thc,1.72
2023-12-17T08:44:00,thc,1.69
2023-12-17T08:45:00,thc,1.60
2023-12-17T08:46:00,thc,2.87
2023-12-17T08:47:00,thc,2.85
2023-12-17T08:48:00,thc,2.84
2023-12-17T08:49:00,thc,2.88
2023-12-17T08:50:00,thc,2.89
2023-12-17T08:51:00,thc,2.86
2023-12-17T08:52:00,thc,2.85
2023-12-17T08:53:00,thc,1.81
2023-12-17T08:54:00,thc,1.76
2023-12-17T08:55:00,thc,1.76
2023-12-17T08:56:00,thc,1.72
2023-12-17T08:57:00,thc,1.73
2023-12-17T08:58:00,thc,1.76
2023-12-17T08:59:00,thc,1.88
2023-12-17T09:00:00,thc,1.94
2023-12-17T09:01:00,thc,1.75
2023-12-17T09:02:00,thc,1.75
2023-12-17T09:03:00,thc,1.67
2023-12-17T09:04:00,thc,2.55
2023-12-17T09:05:00,thc,2.57
2023-12-17T09:06:00,thc,3.54
2023-12-17T09:07:00,thc,3.54
2023-12-17T09:08:00,thc,3.49
2023-12-17T09:09:00,thc,3.48
2023-12-17T09:10:00,thc,3.45
2023-12-17T09:11:00,thc,2.58
2023-12-17T09:12:00,thc,2.06
2023-12-17T09:13:00,thc,1.88
2023-12-17T09:14:00,thc,1.87
2023-12-17T09:15:00,thc,1.63
2023-12-17T09:16:00,thc,4.91
2023-12-17T09:17:00,thc,4.90
2023-12-17T09:18:00,thc,4.89
2023-12-17T09:19:00,thc,4.95
2023-12-17T09:20:00,thc,4.86
2023-12-17T09:21:00,thc,4.84
2023-12-17T09:22:00,thc,5.46
2023-12-17T09:23:00,thc,3.49
2023-12-17T09:24:00,thc,2.56
2023-12-17T09:25:00,thc,2.58
2023-12-17T09:26:00,thc,2.55
2023-12-17T09:27:00,thc,2.51
2023-12-17T09:28:00,thc,2.47
2023-12-17T09:29:00,thc,1.54
2023-12-17T09:30:00,thc,1.54
2023-12-17T09:31:00,thc,1.58
2023-12-17T09:32:00,thc,1.67
2023-12-17T09:33:00,thc,1.64
2023-12-17T09:34:00,thc,1.68
2023-12-17T09:35:00,thc,1.70
2023-12-17T09:36:00,thc,1.57
2023-12-17T09:37:00,thc,1.68
2023-12-17T09:38:00,thc,1.67
2023-12-17T09:39:00,thc,1.78
2023-12-17T09:40:00,thc,1.66
2023-12-17T09:41:00,thc,1.62
2023-12-17T09:42:00,thc,1.61
2023-12-17T09:43:00,thc,1.65
2023-12-17T09:44:00,thc,1.64
2023-12-17T09:45:00,thc,2.60
2023-12-17T09:46:00,thc,2.60
2023-12-17T09:47:00,thc,2.59
2023-12-17T09:48:00,thc,3.76
2023-12-17T09:49:00,thc,3.56
2023-12-17T09:50:00,thc,3.66
2023-12-17T09:51:00,thc,2.85
2023-12-17T09:52:00,thc,2.89
2023-12-17T09:53:00,thc,3.07
2023-12-17T09:54:00,thc,4.03
2023-12-17T09:55:00,thc,2.76
2023-12-17T09:56:00,thc,2.90
2023-12-17T09:57:00,thc,2.87
2023-12-17T09:58:00,thc,2.82
2023-12-17T09:59:00,thc,2.72
2023-12-17T10:00:00,thc,1.59
2023-12-17T10:01:00,thc,1.64
2023-12-17T10:02:00,thc,1.75
2023-12-17T10:03:00,thc,2.04
2023-12-17T10:04:00,thc,1.99
2023-12-17T10:05:00,thc,2.02
2023-12-17T10:06:00,thc,2.02
2023-12-17T10:07:00,thc,2.05
2023-12-17T10:08:00,thc,1.63
2023-12-17T10:09:00,thc,2.09
2023-12-17T10:10:00,thc,3.02
2023-12-17T10:11:00,thc,2.66
2023-12-17T10:12:00,thc,3.08
2023-12-17T10:13:00,thc,3.03
2023-12-17T10:14:00,thc,2.75
2023-12-17T10:15:00,thc,2.69
2023-12-17T10:16:00,thc,3.56
2023-12-17T10:17:00,thc,3.41
2023-12-17T10:18:00,thc,5.18
2023-12-17T10:19:00,thc,3.54
2023-12-17T10:20:00,thc,4.51
2023-12-17T10:21:00,thc,4.66
2023-12-17T10:22:00,thc,4.59
2023-12-17T10:23:00,thc,3.90
2023-12-17T10:24:00,thc,3.87
2023-12-17T10:25:00,thc,3.88
2023-12-17T10:26:00,thc,3.85
2023-12-17T10:27:00,thc,4.20
2023-12-17T10:28:00,thc,3.69
2023-12-17T10:29:00,thc,3.65
2023-12-17T10:30:00,thc,3.65
2023-12-17T10:31:00,thc,3.55
2023-12-17T10:32:00,thc,3.50
2023-12-17T10:33:00,thc,3.64
2023-12-17T10:34:00,thc,2.51
2023-12-17T10:35:00,thc,2.42
2023-12-17T10:36:00,thc,2.39
2023-12-17T10:37:00,thc,2.52
2023-12-17T10:38:00,thc,2.49
2023-12-17T10:39:00,thc,2.55
2023-12-17T10:40:00,thc,2.51
2023-12-17T10:41:00,thc,2.47
2023-12-17T10:42:00,thc,2.51
2023-12-17T10:43:00,thc,2.51
2023-12-17T10:44:00,thc,2.50
2023-12-17T10:45:00,thc,2.47
2023-12-17T10:46:00,thc,2.38
2023-12-17T10:47:00,thc,2.42
2023-12-17T10:48:00,thc,2.36
2023-12-17T10:49:00,thc,3.30
2023-12-17T10:50:00,thc,4.27
2023-12-17T10:51:00,thc,4.37
2023-12-17T10:52:00,thc,4.34
2023-12-17T10:53:00,thc,4.28
2023-12-17T10:54:00,thc,5.53
2023-12-17T10:55:00,thc,5.66
2023-12-17T10:56:00,thc,4.10
2023-12-17T10:57:00,thc,3.15
2023-12-17T10:58:00,thc,3.22
2023-12-17T10:59:00,thc,3.15
2023-12-17T11:00:00,thc,4.18
2023-12-17T11:01:00,thc,5.30
2023-12-17T11:02:00,thc,4.43
2023-12-17T11:03:00,thc,5.58
2023-12-17T11:04:00,thc,5.64
2023-12-17T11:05:00,thc,5.69
2023-12-17T11:06:00,thc,5.43
2023-12-17T11:07:00,thc,4.46
2023-12-17T11:08:00,thc,5.35
2023-12-17T11:09:00,thc,5.26
2023-12-17T11:10:00,thc,4.33
2023-12-17T11:11:00,thc,4.39
2023-12-17T11:12:00,thc,4.20
2023-12-17T11:13:00,thc,4.19
2023-12-17T11:14:00,thc,4.23
2023-12-17T11:15:00,thc,4.03
2023-12-17T11:16:00,thc,3.26
2023-12-17T11:17:00,thc,3.26
2023-12-17T11:18:00,thc,3.24
2023-12-17T11:19:00,thc,3.24
2023-12-17T11:20:00,thc,2.35
2023-12-17T11:21:00,thc,2.27
2023-12-17T11:22:00,thc,2.27
2023-12-17T11:23:00,thc,2.43
2023-12-17T11:24:00,thc,2.43
2023-12-17T11:25:00,thc,2.31
2023-12-17T11:26:00,thc,2.31
2023-12-17T11:27:00,thc,2.31
2023-12-17T11:28:00,thc,2.42
2023-12-17T11:29:00,thc,2.46
2023-12-17T11:30:00,thc,3.37
2023-12-17T11:31:00,thc,3.31
2023-12-17T11:32:00,thc,4.28
2023-12-17T11:33:00,thc,5.71
2023-12-17T11:34:00,thc,5.08
2023-12-17T11:35:00,thc,5.12
2023-12-17T11:36:00,thc,4.11
2023-12-17T11:37:00,thc,4.21
2023-12-17T11:38:00,thc,4.16
2023-12-17T11:39:00,thc,5.10
2023-12-17T11:40:00,thc,4.61
2023-12-17T11:41:00,thc,3.86
2023-12-17T11:42:00,thc,3.85
2023-12-17T11:43:00,thc,4.89
2023-12-17T11:44:00,thc,4.70
2023-12-17T11:45:00,thc,4.55
2023-12-17T11:46:00,thc,3.59
2023-12-17T11:47:00,thc,3.69
2023-12-17T11:48:00,thc,4.60
2023-12-17T11:49:00,thc,4.27
2023-12-17T11:50:00,thc,3.47
2023-12-17T11:51:00,thc,3.16
2023-12-17T11:52:00,thc,3.17
2023-12-17T11:53:00,thc,3.23
2023-12-17T11:54:00,thc,3.22
2023-12-17T11:55:00,thc,2.67
2023-12-17T11:56:00,thc,2.40
2023-12-17T11:57:00,thc,2.25
2023-12-17T11:58:00,thc,3.27
2023-12-17T11:59:00,thc,3.21
2023-12-17T12:00:00,thc,3.30
2023-12-17T12:01:00,thc,3.26
2023-12-17T12:02:00,thc,3.31
2023-12-17T12:03:00,thc,3.48
2023-12-17T12:04:00,thc,3.92
2023-12-17T12:05:00,thc,3.79
2023-12-17T12:06:00,thc,3.79
2023-12-17T12:07:00,thc,3.63
2023-12-17T12:08:00,thc,3.68
2023-12-17T12:09:00,thc,3.27
2023-12-17T12:10:00,thc,8.48
2023-12-17T12:11:00,thc,8.48
2023-12-17T12:12:00,thc,8.46
2023-12-17T12:13:00,thc,8.44
2023-12-17T12:14:00,thc,8.44
2023-12-17T12:15:00,thc,8.70
2023-12-17T12:16:00,thc,7.75
2023-12-17T12:17:00,thc,7.81
2023-12-17T12:18:00,thc,8.70
2023-12-17T12:19:00,thc,8.68
2023-12-17T12:20:00,thc,9.78
2023-12-17T12:21:00,thc,8.88
2023-12-17T12:22:00,thc,8.88
2023-12-17T12:23:00,thc,8.92
2023-12-17T12:24:00,thc,7.87
2023-12-17T12:25:00,thc,7.82
2023-12-17T12:26:00,thc,8.46
2023-12-17T12:27:00,thc,7.42
2023-12-17T12:28:00,thc,7.35
2023-12-17T12:29:00,thc,6.61
2023-12-17T12:30:00,thc,7.34
2023-12-17T12:31:00,thc,3.37
2023-12-17T12:32:00,thc,3.35
2023-12-17T12:33:00,thc,2.77
2023-12-17T12:34:00,thc,7.51
2023-12-17T12:35:00,thc,6.88
2023-12-17T12:36:00,thc,6.92
2023-12-17T12:37:00,thc,2.17
2023-12-17T12:38:00,thc,2.87
2023-12-17T12:39:00,thc,2.13
2023-12-17T12:40:00,thc,6.94
2023-12-17T12:41:00,thc,7.21
2023-12-17T12:42:00,thc,6.25
2023-12-17T12:43:00,thc,6.95
2023-12-17T12:44:00,thc,2.13
2023-12-17T12:45:00,thc,2.79
2023-12-17T12:46:00,thc,2.03
2023-12-17T12:47:00,thc,6.64
2023-12-17T12:48:00,thc,5.93
2023-12-17T12:49:00,thc,6.66
2023-12-17T12:50:00,thc,2.63
2023-12-17T12:51:00,thc,1.77
2023-12-17T12:52:00,thc,3.42
2023-12-17T12:53:00,thc,6.78
2023-12-17T12:54:00,thc,7.36
2023-12-17T12:55:00,thc,6.70
2023-12-17T12:56:00,thc,7.62
2023-12-17T12:57:00,thc,3.71
2023-12-17T12:58:00,thc,3.69
2023-12-17T12:59:00,thc,3.81
2023-12-17T13:00:00,thc,6.86
2023-12-17T13:01:00,thc,6.79
2023-12-17T13:02:00,thc,7.59
2023-12-17T13:03:00,thc,2.84
2023-12-17T13:04:00,thc,2.81
2023-12-17T13:05:00,thc,2.77
2023-12-17T13:06:00,thc,7.50
2023-12-17T13:07:00,thc,7.61
2023-12-17T13:08:00,thc,8.46
2023-12-17T13:09:00,thc,3.55
2023-12-17T13:10:00,thc,3.54
2023-12-17T13:11:00,thc,3.57
2023-12-17T13:12:00,thc,7.54
2023-12-17T13:13:00,thc,7.53
2023-12-17T13:14:00,thc,7.31
2023-12-17T13:15:00,thc,6.59
2023-12-17T13:16:00,thc,2.55
2023-12-17T13:17:00,thc,2.51
2023-12-17T13:18:00,thc,2.61
2023-12-17T13:19:00,thc,6.61
2023-12-17T13:20:00,thc,5.71
2023-12-17T13:21:00,thc,5.71
2023-12-17T13:22:00,thc,6.05
2023-12-17T13:23:00,thc,2.50
2023-12-17T13:24:00,thc,2.48
2023-12-17T13:25:00,thc,2.51
2023-12-17T13:26:00,thc,3.32
2023-12-17T13:27:00,thc,3.29
2023-12-17T13:28:00,thc,2.47
2023-12-17T13:29:00,thc,2.51
2023-12-17T13:30:00,thc,2.50
2023-12-17T13:31:00,thc,2.53
2023-12-17T13:32:00,thc,2.49
2023-12-17T13:33:00,thc,2.46
2023-12-17T13:34:00,thc,2.46
2023-12-17T13:35:00,thc,2.54
2023-12-17T13:36:00,thc,2.82
2023-12-17T13:37:00,thc,1.79
2023-12-17T13:38:00,thc,1.94
2023-12-17T13:39:00,thc,1.76
2023-12-17T13:40:00,thc,3.16
2023-12-17T13:41:00,thc,2.74
2023-12-17T13:42:00,thc,2.73
2023-12-17T13:43:00,thc,3.81
2023-12-17T13:44:00,thc,3.81
2023-12-17T13:45:00,thc,3.61